sat.trackr.live / text

‹ back to catalog

IRIDIUM 104

NORAD 41922 · 2017-003F

PAYLOAD ACTIVE UNKNOWN

§ Identity

Operator
Country
US
Launch date
2017-01-14
Launch site
AFWTR
Launch vehicle
Mass (kg)
RCS (m²)
2.89

Purposes: comms

External: N2YO · Heavens-Above · Gunter

§ Orbital elements

Epoch: 2026-05-24T21:46:02.296128Z

Period
100.40 min
Inclination
86.3951°
Eccentricity
0.0002538
Mean motion
14.34217708 rev/d
Perigee alt
775.9 km
Apogee alt
779.5 km
Semi-major
7,155.8 km
B*
3.4063e-5
RAAN
98.2131°
Arg perigee
89.4406°
Mean anomaly
270.7081°
Rev number
48,993

§ Raw data

IRIDIUM 1041 41922U 17003F   26144.90697102  .00000115  00000+0  34063-4 0  99962 41922  86.3951  98.2131 0002538  89.4406 270.7081 14.34217708489930

JSON: /api/v1/satellites/41922 · /tle

For live sub-satellite position, see the globe view (requires WebGL).

§ Visibility from observer

Set your observer location to see the next 7 days of passes ≥ 10°. The values pass through the URL so the page stays shareable.

No JS? Fill the form by hand. The geolocation button needs JavaScript.